This is the latest recevied weather packets stored in our database for station/object PP5ABU-13. If no packets are shown the sender has not sent any weather packets the latest 10 day(s).
| Time | Temp. | Humidity | Pressure | Rain* | Wind** | Luminosity | Snow |
|---|---|---|---|---|---|---|---|
| 1777678204 | 22.78° C | 97% | 1012.7 hPa | 0 mm | - | - | - |
| 1777677304 | 23.33° C | 97% | 1012.7 hPa | 0 mm | - | - | - |
| 1777676404 | 23.33° C | 100% | 1012.6 hPa | 0 mm | - | - | - |
| 1777675504 | 22.78° C | 100% | 1012.7 hPa | 0 mm | - | - | - |
| 1777674605 | 22.78° C | 96% | 1012.4 hPa | 0 mm | - | - | - |
| 1777673704 | 22.78° C | 94% | 1012.6 hPa | 0 mm | - | - | - |
| 1777672804 | 23.33° C | 91% | 1012.3 hPa | 0 mm | - | - | - |
| 1777671904 | 23.33° C | 87% | 1012.4 hPa | 0 mm | - | - | - |
| 1777671005 | 23.33° C | 83% | 1012.3 hPa | 0 mm | - | - | - |
| 1777670104 | 23.89° C | 81% | 1012.2 hPa | 0 mm | - | - | - |
| 1777669204 | 23.89° C | 80% | 1012.1 hPa | 0 mm | - | - | - |
| 1777668304 | 24.44° C | 76% | 1012.2 hPa | 0 mm | - | - | - |
| 1777667405 | 25.56° C | 73% | 1012.1 hPa | 0 mm | - | - | - |
| 1777666504 | 26.67° C | 71% | 1012.1 hPa | 0 mm | - | - | - |
| 1777665605 | 27.22° C | 68% | 1012.1 hPa | 0 mm | - | - | - |
| 1777664704 | 27.78° C | 63% | 1012.1 hPa | 0 mm | - | - | - |
| 1777663804 | 27.78° C | 64% | 1012 hPa | 0 mm | - | - | - |
| 1777662904 | 28.33° C | 63% | 1011.9 hPa | 0 mm | - | - | - |
| 1777662004 | 28.33° C | 63% | 1012 hPa | 0 mm | - | - | - |
| 1777661104 | 29.44° C | 61% | 1012 hPa | 0 mm | - | - | - |
| 1777659305 | 29.44° C | 62% | 1012.1 hPa | 0 mm | - | - | - |
| 1777658404 | 28.89° C | 62% | 1012.4 hPa | 0 mm | - | - | - |
| 1777657504 | 28.89° C | 63% | 1012.9 hPa | 0 mm | - | - | - |
| 1777656604 | 28.89° C | 63% | 1013.1 hPa | 0 mm | - | - | - |
| 1777655704 | 28.89° C | 62% | 1013.6 hPa | 0 mm | - | - | - |
* Rain latest hour (hover to see other rain measurements)
** Current wind speed in m/s (hover to see current wind gust speed)